Weather History for Pasco, WA

Change the Weather History Date:

Friday, July 27, 2012

  Actual Average Record
Temperature  
Mean Temperature 80 °F 75 °F  
Max Temperature 96 °F 93 °F 111 °F (1998)
Min Temperature 63 °F 57 °F 51 °F (2014)
Degree Days  
Heating Degree Days 0 0  
Month to date heating degree days 2 1  
Since 1 June heating degree days 73 33  
Since 1 July heating degree days 2 1  
Cooling Degree Days 15 10  
Month to date cooling degree days 308 227  
Year to date cooling degree days 417 369  
Since 1 June cooling degree days 387 336  
Growing Degree Days 30 (Base 50)    
Moisture  
Dew Point 51 °F    
Average Humidity 49    
Maximum Humidity 84    
Minimum Humidity 13    
Precipitation  
Precipitation 0.00 in 0.00 in 0.09 in (1955)
Month to date precipitation 0.60 0.26  
Year to date precipitation 6.21 5.19  
Snow  
Snow 0.00 in - - ()
Snow Depth 0.00 in    
Sea Level Pressure  
Sea Level Pressure 29.83 in    
Wind  
Wind Speed 6 mph (SSW)    
Max Wind Speed 22 mph    
Max Gust Speed 26 mph    
Visibility 10 miles    
Events      
T = Trace of Precipitation, MM = Missing Value Source: NWS Daily Summary

Daily Weather History Graph

Daily Weather History Graph

Search for Another Location

Airport:

Trip Planner

Search our weather history database for the weather conditions in past years. The results will help you decide how hot, cold, wet, or windy it might be!

Date:

Astronomy

Jul. 27, 2012 Rise Set
Actual Time 5:32 AM PDT 8:32 PM PDT
Civil Twilight 4:57 AM PDT 9:07 PM PDT
Nautical Twilight 4:11 AM PDT 9:52 PM PDT
Astronomical Twilight 3:16 AM PDT 10:47 PM PDT
Moon 3:36 PM PDT (7/27) 12:09 AM PDT (7/27)
Length of Visible Light 16h 10m
Length of Day
14h 59m
Waxing Gibbous, 66% of the Moon is Illuminated
Jul 27
Waxing Gibbous
Aug 1
Full
Aug 9
Last Quarter
Aug 17
New
Aug 24
First Quarter

Hourly Weather History & Observations

Time (PDT) Temp. Heat Index Dew Point Humidity Pressure Visibility Wind Dir Wind Speed Gust Speed Precip Events Conditions
12:53 AM 78.1 °F - 55.0 °F 45% 29.78 in 10.0 mi Calm Calm - N/A   Clear
1:53 AM 72.0 °F - 57.9 °F 61% 29.80 in 10.0 mi Calm Calm - N/A   Clear
2:53 AM 70.0 °F - 59.0 °F 68% 29.80 in 10.0 mi Calm Calm - N/A   Clear
3:53 AM 64.9 °F - 59.0 °F 81% 29.80 in 10.0 mi Calm Calm - N/A   Clear
4:53 AM 66.9 °F - 55.9 °F 68% 29.82 in 10.0 mi Calm Calm - N/A   Clear
5:53 AM 66.9 °F - 55.9 °F 68% 29.83 in 10.0 mi SE 3.5 mph - N/A   Clear
6:53 AM 72.0 °F - 55.0 °F 55% 29.84 in 10.0 mi SSW 8.1 mph - N/A   Clear
7:53 AM 73.0 °F - 55.9 °F 55% 29.85 in 10.0 mi SSW 9.2 mph - N/A   Clear
8:53 AM 75.9 °F - 57.0 °F 52% 29.85 in 10.0 mi South 8.1 mph - N/A   Clear
9:53 AM 81.0 °F 81.0 °F 57.0 °F 44% 29.85 in 10.0 mi SSW 8.1 mph - N/A   Clear
10:53 AM 82.0 °F 81.6 °F 55.9 °F 41% 29.85 in 10.0 mi SSW 9.2 mph - N/A   Clear
11:53 AM 86.0 °F 84.5 °F 55.0 °F 35% 29.85 in 10.0 mi SSE 11.5 mph - N/A   Clear
12:53 PM 88.0 °F 85.7 °F 53.1 °F 30% 29.84 in 10.0 mi SW 10.4 mph - N/A   Clear
2:53 PM 95.0 °F - 42.1 °F 16% 29.81 in 10.0 mi SW 10.4 mph 19.6 mph 0.00 in   Clear
3:53 PM 95.0 °F - 39.0 °F 14% 29.80 in 10.0 mi SSW 13.8 mph - N/A   Clear
4:53 PM 93.9 °F - 44.1 °F 18% 29.79 in 10.0 mi SSW 10.4 mph - N/A   Clear
5:53 PM 95.0 °F - 39.0 °F 14% 29.77 in 10.0 mi SSW 18.4 mph 25.3 mph N/A   Clear
6:53 PM 93.0 °F - 36.0 °F 13% 29.77 in 10.0 mi WSW 8.1 mph - N/A   Clear
7:53 PM 87.1 °F - 39.9 °F 19% 29.80 in 10.0 mi WSW 12.7 mph - N/A   Clear
8:53 PM 79.0 °F - 50.0 °F 36% 29.84 in 10.0 mi WSW 13.8 mph - N/A   Clear
9:53 PM 75.0 °F - 52.0 °F 44% 29.88 in 10.0 mi SSW 11.5 mph - N/A   Clear
10:53 PM 71.1 °F - 52.0 °F 51% 29.91 in 10.0 mi SW 15.0 mph - N/A   Clear
11:53 PM 69.1 °F - 53.1 °F 57% 29.94 in 10.0 mi South 9.2 mph - N/A   Clear